Regional Weather Roundup
Issued by NWS

Home | Current Version | Previous Version | Graphics & Text | Print | Product List | Glossary On
Versions: 1 2 3 4 5 6 7 8 9 10 11 12 13 14 15 16 17 18 19 20 21 22 23 24 25 26 27 28 29 30 31 32 33 34 35 36 37 38 39 40 41 42 43 44 45 46 47 48 49 50
000
ASUS44 KMEG 251810
RWRTN
TENNESSEE HOURLY STATE WEATHER ROUNDUP
NATIONAL WEATHER SERVICE MEMPHIS TN
1200 PM CST SUN JAN 25 2015

TNZ002-004-019-021-049-052-054-088>092-251900-
WEST TENNESSEE

CITY           SKY/WX    TMP DP  RH WIND       PRES   REMARKS
MEMPHIS INTL   PTSUNNY   50  42  74 SW15G21   29.71F
NWS MEMPHIS      N/A     46 N/A N/A MISG        N/A
JACKSON        LGT RAIN  46  40  79 SW13      29.68F
DYERSBURG      CLOUDY    45  30  57 SW12G18   29.68F
UNION CITY     CLOUDY    43  41  93 SW10      29.63F
PARIS          PTSUNNY   43  37  81 SW8       29.65F
LEXINGTON      MOSUNNY   48  37  66 SW10      29.67F
SAVANNAH       PTSUNNY   52  37  58 SW9       29.72F
$$

TNZ008-025-027-028-033-062-065-066-251900-
NORTH MIDDLE TENNESSEE

CITY           SKY/WX    TMP DP  RH WIND       PRES   REMARKS
NASHVILLE      PTSUNNY   56  36  47 S18G28    29.67F
CLARKSVILLE    CLOUDY    51  35  54 SW13      29.65F
SMYRNA         MOSUNNY   54  36  50 SW17G24   29.69F
COOKEVILLE     SUNNY     54  37  54 S14       29.70F
CROSSVILLE     SUNNY     48  31  51 S9G21     29.73F
$$

TNZ061-075-076-078-094-096-097-251900-
SOUTH MIDDLE TENNESSEE

CITY           SKY/WX    TMP DP  RH WIND       PRES   REMARKS
FAYETTEVILLE   SUNNY     52  36  54 MISG      29.72F
TULLAHOMA      SUNNY     52  36  54 S18       29.72F
WINCHESTER     SUNNY     54  36  50 S9        29.75F
MCMINNVILLE    SUNNY     54  36  50 S14       29.71F
COLUMBIA         N/A     54  43  66 S13       29.66F
SHELBYVILLE    MOSUNNY   54  39  58 S21       29.71F
$$

TNZ017-018-042-046-047-251900-
NORTHEAST TENNESSEE

CITY           SKY/WX    TMP DP  RH WIND       PRES   REMARKS
TRI CITIES     CLOUDY    48  32  53 CALM      29.78F
ELIZABETHTON   CLEAR     48  28  46 CALM      29.77F
$$

TNZ012-013-036-069-073-074-251900-
CENTRAL EAST TENNESSEE

CITY           SKY/WX    TMP DP  RH WIND       PRES   REMARKS
KNOXVILLE      PTSUNNY   52  34  50 SW18G26   29.77F
OAK RIDGE      SUNNY     49  32  52 W6        29.80F
GATLINBURG     CLEAR     52  30  43 N5        29.76F
MORRISTOWN     CLEAR     50  34  53 VRB5      29.77F
$$

TNZ083-085-099-251900-
SOUTHEAST TENNESSEE

CITY           SKY/WX    TMP DP  RH WIND       PRES   REMARKS
CHATTANOOGA    MOSUNNY   53  33  46 S12G18    29.79F
$$

SKY/WX REPORTED AS FAIR MEANS FEW OR NO CLOUDS BELOW
12 THOUSAND FEET.




USA.gov is the U.S. government's official web portal to all federal, state and local government web resources and services.